Location: Unspecified
(49.9820°N, 20.4363°E)
Time: 00:53:29
(UTC+02:00)

ISS - Pass Details

Date: 17 July 2018
Orbit: 402 x 408 km, 51.6° (Epoch: 16 July)

Event Time Altitude Azimuth Distance (km) Brightness Sun altitude
Exits shadow 00:08:36 29° 95° (E) 782 -2.6 -18.3°
Drops below altitude 10° 00:10:28 10° 78° (ENE) 1,470 -1.0 -18.4°
Sets 00:12:36 0° 72° (ENE) 2,334 0.2 -18.4°
